Home > Weather > Jefferson City > Past weeks

Flag for USA Past Weather in Jefferson City, Missouri, USA — Yesterday and Last 2 Weeks

Now
70 °F

Clear.


Feels Like: 68 °F
Forecast: 66 / 81 °F
Wind: 5 mph from Northwest

Location: Jefferson City Memorial Airport

Current Time: Jun 1, 2016 at 12:31:12 AM

Latest Report: May 31, 2016 at 11:53 PM


Visibility: 10 mi

Pressure: 29.88 "Hg

Humidity: 87%

Dew Point: 66 °F

Location of Jefferson CityLocation

Past Weather in Jefferson City — Graph

°F

Jefferson City Temperature Yesterday

Maximum temperature yesterday: 81 °F (at 2:53 PM)
Minimum temperature yesterday: 65 °F (at 3:53 AM)
Average temperature yesterday: 73 °F

High & Low Weather Summary for the Past Weeks

 TemperatureHumidityPressure
High87 °F (May 26, 3:53 PM)100% (May 18, 4:01 AM)30.24 "Hg (May 18, 4:01 AM)
Low42 °F (May 19, 5:53 AM)28% (May 22, 3:53 PM)29.70 "Hg (May 27, 3:53 PM)
Average66 °F73%29.98 "Hg
* Reported May 16 11:00 PM — May 31 10:53 PM, Jefferson City, Weather by CustomWeather, © 2016

Note: Actual official high and low records may vary slightly from our data, if they occured in-between our weather recording intervals... More about our weather records

Advertising

Jefferson City Weather History for the Previous 24 Hours

Scroll right to see more
 ConditionsComfort  
Time TempWeatherWind HumidityBarometerVisibility
10:53 PM
Tue, May 31
71 °FClear.No wind84%29.88 "Hg10 mi
9:53 PM74 °FPassing clouds.No wind76%29.87 "Hg10 mi
8:53 PM76 °FScattered clouds.No wind72%29.85 "Hg10 mi
7:53 PM79 °FPartly sunny.3 mph62%29.84 "Hg10 mi
6:53 PM80 °FPassing clouds.6 mph58%29.83 "Hg10 mi
5:53 PM81 °FPassing clouds.8 mph56%29.82 "Hg10 mi
4:53 PM81 °FScattered clouds.7 mph54%29.82 "Hg10 mi
3:53 PM81 °FSunny.10 mph53%29.83 "Hg10 mi
2:53 PM81 °FPassing clouds.9 mph53%29.86 "Hg10 mi
1:53 PM80 °FScattered clouds.12 mph56%29.88 "Hg10 mi
12:53 PM79 °FPartly sunny.15 mph56%29.90 "Hg10 mi
11:53 AM77 °FScattered clouds.7 mph60%29.92 "Hg10 mi
10:53 AM75 °FSunny.8 mph62%29.92 "Hg10 mi
9:53 AM71 °FSunny.6 mph73%29.94 "Hg10 mi
8:53 AM67 °FMostly cloudy.7 mph87%29.94 "Hg10 mi
7:53 AM66 °FOvercast.3 mph90%29.94 "Hg10 mi
6:53 AM65 °FScattered clouds.3 mph97%29.94 "Hg10 mi
5:53 AM65 °FPassing clouds.No wind94%29.93 "Hg10 mi
4:53 AM65 °FLight rain. Passing clouds.3 mph97%29.92 "Hg10 mi
3:53 AM65 °FLight rain. Overcast.5 mph94%29.93 "Hg10 mi
2:53 AM66 °FLight rain. Overcast.3 mph90%29.95 "Hg10 mi
1:53 AM66 °FPassing clouds.No wind87%29.93 "Hg10 mi
12:53 AM67 °FClear.No wind85%29.93 "Hg10 mi
Weather by CustomWeather, © 2016

See weather overviewHow to use our weather pages